GFSMA_850_spd_204.txt.gz
Wind_Speed
23 22 19 18 17 17 16 15 14 14 15 15 15 13 12 10 9 6 8 12 14 14 12 12 13 16 16 15 14 12 10 10 9 10 10 9 10 11 13 14 13 14 15
23 22 23 21 20 21 18 15 14 13 14 15 17 15 15 13 12 10 9 11 15 15 13 13 13 15 17 17 13 11 7 7 8 12 14 16 17 18 19 20 17 17 17
27 24 21 20 20 20 21 18 16 16 17 18 18 18 17 17 16 15 13 14 16 17 15 15 16 18 16 14 12 9 10 12 13 10 13 15 17 16 14 16 17 16 16
28 27 21 21 23 22 21 21 18 16 17 18 15 18 18 18 18 17 16 14 15 13 14 16 17 18 16 15 15 14 13 11 11 10 10 11 12 11 9 6 5 7 8
32 29 23 20 20 23 23 21 18 18 17 16 15 16 20 20 20 19 19 17 17 17 18 15 21 21 19 19 17 14 10 8 7 9 10 9 7 6 5 3 2 2 3
30 32 27 23 22 18 21 24 20 19 18 16 16 23 23 23 22 20 21 22 22 22 22 22 24 26 22 21 19 16 13 12 12 12 10 8 5 5 4 5 5 5 4
24 28 29 27 26 23 20 24 24 22 24 24 26 26 27 29 26 26 28 27 27 29 28 28 27 30 27 24 20 18 16 14 14 10 7 5 2 1 2 3 3 2 2
21 22 23 23 23 24 24 25 25 26 29 28 27 28 27 27 30 32 33 32 30 33 30 34 33 32 29 27 25 18 12 8 9 11 10 7 6 7 10 10 10 11 11
20 19 18 18 19 21 23 24 25 26 28 28 29 26 10 14 18 30 34 34 36 37 37 38 34 33 30 24 23 18 14 11 12 11 7 2 4 8 8 7 5 5 6
17 16 17 17 18 18 19 20 21 22 23 26 26 31 34 31 15 13 26 31 32 33 38 36 38 36 33 31 24 19 16 16 15 12 6 3 1 3 2 3 1 4 11
19 18 18 18 18 17 18 19 19 19 23 25 26 26 32 36 29 25 19 27 35 36 37 32 35 35 32 26 26 21 20 18 13 8 3 2 7 8 6 6 0 3 6
21 18 19 18 18 18 17 17 19 21 21 22 24 25 28 30 34 33 27 24 29 31 32 28 32 36 34 31 28 23 21 19 14 11 7 11 11 10 10 7 3 3 4
16 14 14 15 16 18 19 20 21 22 21 22 23 23 26 26 34 31 35 24 23 29 29 33 36 38 39 37 32 27 24 21 15 11 9 12 10 8 10 6 5 5 5
12 12 13 15 17 18 19 19 20 21 22 21 21 23 25 28 32 33 35 36 22 25 31 31 38 38 39 36 35 27 24 23 18 12 9 11 9 6 7 7 4 5 6
11 13 14 15 17 18 19 21 22 22 22 24 24 24 24 25 25 28 32 32 30 27 33 34 37 41 41 40 35 28 27 24 19 14 11 11 6 4 4 4 4 5 7
10 12 13 15 16 16 17 19 20 21 21 21 24 24 23 23 25 25 27 29 30 30 28 37 41 44 45 40 34 27 29 24 19 17 12 11 8 4 5 5 5 6 8
6 8 10 13 15 17 19 19 20 20 21 22 22 22 21 23 25 25 27 29 30 32 31 30 40 41 45 40 32 29 26 21 21 18 12 10 6 5 5 4 5 8 11
8 8 10 12 14 17 19 20 21 20 22 21 22 20 22 25 26 26 26 27 31 33 31 32 32 41 43 40 33 30 27 24 21 19 13 10 7 4 4 5 6 7 9
9 11 13 15 15 15 15 17 19 21 21 23 24 25 25 27 26 25 26 30 32 36 37 38 34 38 37 36 35 32 28 24 22 18 14 10 7 7 7 7 6 6 6
10 14 15 17 16 16 17 17 19 21 22 23 25 25 24 25 26 29 31 31 33 38 36 35 33 35 34 37 37 34 30 25 23 19 15 11 11 11 9 6 4 4 5
13 16 18 18 20 22 21 20 20 21 23 24 26 27 27 28 28 28 31 32 30 29 30 28 33 35 39 44 42 39 33 28 22 19 17 16 15 12 9 6 3 3 5
16 17 19 21 22 23 23 23 21 23 25 28 28 30 32 29 30 32 34 33 35 38 38 33 37 40 44 44 43 40 35 31 27 23 21 18 15 11 9 7 5 3 3
23 24 24 23 24 24 25 24 24 25 27 28 31 33 35 33 32 35 35 32 31 29 28 27 33 38 39 39 38 39 35 30 25 25 25 20 18 17 12 14 8 6 5
19 20 20 23 26 25 25 24 24 26 28 30 30 34 37 37 38 38 38 38 36 33 32 28 26 28 27 31 34 32 30 27 22 21 26 24 24 22 16 14 10 8 7
22 23 25 26 27 27 25 26 25 26 27 27 25 24 22 25 32 37 37 38 35 34 34 27 21 18 21 24 27 32 34 35 31 24 25 26 27 23 20 16 13 12 9
25 27 30 32 32 33 29 27 26 27 28 27 24 23 25 28 27 32 33 37 38 38 36 32 28 24 22 24 29 32 34 36 35 26 32 28 25 26 18 20 17 15 12

GFSMA_850_spd_210.txt.gz
Wind_Speed
23 19 20 17 16 22 19 18 14 12 13 10 16 19 17 10 10 9 11 12 15 15 13 13 12 13 14 15 15 14 12 10 10 10 11 12 13 12 11 11 12 14 14
25 23 22 20 16 13 12 16 13 14 13 15 14 15 14 11 11 9 12 15 15 13 14 15 14 14 15 15 15 16 15 14 14 13 13 13 15 15 16 16 17 17 18
28 26 22 24 19 18 17 13 17 15 16 15 13 13 14 14 14 13 15 17 16 15 15 18 17 16 16 14 15 16 17 17 16 16 15 16 14 13 15 17 17 17 17
31 27 25 23 23 23 20 24 17 19 21 16 15 16 15 15 13 13 18 18 19 18 17 19 20 19 18 17 17 18 20 20 20 18 18 16 16 16 16 15 15 15 15
29 30 30 24 25 23 23 24 25 20 20 19 18 18 15 18 16 20 18 15 21 22 20 20 23 20 20 20 19 21 22 23 22 22 20 20 19 19 18 17 15 13 12
32 35 33 29 25 25 25 22 22 22 24 18 15 18 18 23 27 22 18 15 20 23 24 22 22 24 21 21 21 25 29 26 25 25 23 20 19 18 16 14 12 11 8
32 29 36 32 25 29 31 26 23 23 22 20 19 23 25 28 29 25 25 23 23 23 26 27 28 28 26 26 26 29 34 30 28 27 23 21 19 17 14 10 8 6 6
35 29 37 37 32 31 28 25 25 23 26 26 26 24 22 27 32 31 30 29 28 28 28 29 31 33 32 34 31 31 36 33 32 27 25 22 20 18 15 14 11 10 13
35 30 29 38 35 34 32 28 28 27 27 27 28 24 9 14 17 19 21 22 24 27 30 31 34 33 35 37 39 35 39 37 31 30 28 22 20 18 16 15 14 14 10
36 32 28 30 35 32 30 28 26 26 28 28 24 29 30 29 21 16 21 18 22 24 27 27 28 34 38 41 43 36 44 41 35 31 25 21 18 19 15 10 8 5 9
35 29 28 27 29 30 28 27 29 25 26 25 27 25 25 27 28 32 29 28 26 26 27 28 27 30 35 39 42 41 43 36 33 32 24 20 17 14 8 6 9 8 13
35 30 26 26 27 27 26 25 24 25 24 25 24 25 23 25 25 26 30 29 28 29 28 26 27 30 33 37 43 43 40 36 34 28 19 25 22 17 9 8 9 11 13
34 32 28 28 28 27 25 23 23 26 25 23 24 24 25 25 26 25 27 28 28 29 30 29 27 28 32 37 38 40 40 42 35 27 26 24 22 17 10 6 9 12 13
33 29 27 26 26 25 23 22 21 21 21 21 22 22 24 24 24 24 26 27 29 30 31 30 30 30 30 34 37 39 41 43 36 31 27 28 26 17 9 9 8 11 12
29 29 27 26 24 21 16 15 14 15 15 15 15 17 17 19 20 22 23 24 26 29 31 29 30 28 27 33 34 38 44 44 40 34 32 37 27 15 13 12 10 11 11
24 24 24 21 18 15 14 14 14 12 12 14 14 16 19 21 22 22 24 22 25 27 30 28 28 24 23 26 35 36 41 40 37 32 36 36 23 21 13 10 11 10 10
22 20 19 18 15 14 11 7 7 8 9 11 13 14 15 18 23 25 22 21 23 24 29 29 30 26 24 23 32 35 39 39 31 35 33 28 24 18 13 13 10 11 9
20 19 18 15 12 9 6 5 6 8 10 11 14 17 19 20 22 21 22 22 22 22 23 25 26 26 27 26 28 36 40 36 34 36 27 27 22 18 17 14 11 10 7
19 17 15 12 9 6 4 4 7 10 14 18 19 19 21 21 20 21 21 22 25 25 24 23 24 23 24 25 27 35 38 39 40 35 31 25 22 20 18 16 12 9 8
18 16 14 10 8 7 7 8 12 14 18 20 20 21 22 23 21 20 21 22 21 24 23 23 25 27 26 26 30 37 39 40 42 34 29 25 24 21 19 16 12 11 8
15 12 9 7 5 4 7 11 15 20 22 24 25 24 23 23 23 24 24 24 22 23 25 26 27 31 30 29 35 40 49 46 40 35 34 32 28 24 22 17 14 14 5
11 9 4 6 11 13 15 17 19 22 24 22 23 23 23 22 22 23 24 27 28 29 29 28 29 30 37 37 40 45 52 48 42 37 37 33 29 25 21 18 17 11 6
7 8 11 11 11 12 12 12 18 20 20 21 22 23 23 22 22 23 24 26 27 27 28 28 30 35 33 38 42 49 56 56 51 44 40 34 29 24 21 20 17 12 10
9 8 8 8 10 13 15 17 19 22 24 24 23 22 23 24 22 23 23 23 23 24 25 26 31 33 32 33 40 51 53 52 43 42 41 35 28 24 22 19 16 13 11
7 8 9 12 15 21 19 18 21 24 26 27 24 23 23 23 21 21 22 23 24 23 27 26 23 27 34 35 33 49 46 50 38 39 40 32 32 27 23 21 20 17 13
9 13 17 19 20 18 19 21 23 26 27 27 25 25 24 22 21 21 22 23 25 24 27 22 22 23 26 25 27 37 43 51 45 33 40 32 38 34 26 25 22 21 18

GFSMA_850_spd_216.txt.gz
Wind_Speed
24 23 22 21 20 19 18 17 16 15 14 14 14 15 12 11 11 12 12 11 11 12 13 10 12 13 13 12 11 12 11 11 12 12 12 12 10 11 12 12 13 13 14
27 25 24 23 22 20 19 19 18 17 17 17 17 16 14 12 15 18 19 18 17 16 15 12 13 14 14 14 14 14 14 14 15 16 14 14 13 13 14 15 15 14 14
30 29 27 25 22 21 17 15 20 20 18 17 17 18 17 17 20 22 20 20 18 16 15 16 15 15 17 17 16 15 15 17 17 17 16 16 16 16 17 17 17 16 16
33 32 31 29 24 22 20 16 17 18 19 18 19 18 16 16 17 17 19 20 19 19 19 18 17 17 19 19 19 19 17 17 18 20 20 20 19 18 18 18 19 18 18
35 35 34 32 26 23 23 21 20 19 19 18 19 19 19 19 17 15 17 18 20 19 20 21 20 20 20 20 21 22 21 20 21 23 24 23 22 21 21 21 22 20 20
34 37 37 35 29 27 26 25 24 21 22 20 21 23 25 24 21 21 19 19 19 20 21 21 22 22 22 21 22 24 24 24 25 24 25 26 25 26 26 25 24 21 21
31 32 37 38 33 33 30 28 26 25 26 25 24 25 28 27 26 27 25 24 25 26 27 25 23 23 24 24 23 24 25 28 28 28 29 31 30 30 30 29 25 22 18
31 32 35 36 38 35 36 32 32 31 29 30 31 30 24 29 31 30 29 29 30 30 29 29 26 25 25 26 25 25 27 30 31 35 35 33 36 34 33 31 25 22 15
36 34 34 36 38 38 39 38 37 39 37 34 30 27 16 19 17 25 29 32 29 24 22 22 23 24 22 24 27 27 31 27 28 35 32 42 38 40 38 32 26 20 20
40 37 36 36 38 40 42 41 40 39 37 39 33 34 35 24 13 8 14 15 13 18 20 22 18 18 22 25 25 28 27 27 31 44 43 46 33 26 27 28 24 20 20
41 41 39 37 38 37 42 44 44 41 40 38 34 36 36 37 35 32 27 24 22 19 21 20 18 20 22 24 25 25 25 25 28 33 32 32 27 26 23 20 21 15 16
40 40 39 38 37 37 37 39 44 42 41 36 34 37 35 33 31 28 28 27 24 22 21 22 21 20 23 23 22 22 21 23 24 25 33 36 29 30 20 18 19 20 20
36 36 38 39 38 37 36 38 40 42 41 40 39 36 30 27 25 24 22 22 24 25 26 26 22 23 22 24 23 23 22 22 21 25 31 40 34 30 23 21 20 21 19
33 35 36 34 34 35 38 39 38 37 40 39 37 35 31 26 22 20 21 21 23 25 27 25 26 24 21 17 18 21 23 22 20 22 30 39 35 29 25 28 27 24 17
30 29 31 30 38 38 38 36 39 43 42 40 37 38 24 20 21 22 24 22 21 20 25 24 22 21 20 20 21 21 20 18 17 17 26 37 34 34 37 36 27 13 17
30 31 32 35 36 37 36 32 34 33 33 31 31 25 26 21 24 22 20 19 19 21 22 23 22 23 22 19 17 17 15 15 14 12 33 36 38 44 40 27 16 17 19
29 32 35 34 37 36 33 31 31 31 27 24 24 24 21 21 19 17 17 16 19 23 23 26 23 20 19 19 16 16 14 13 16 15 32 40 41 43 36 24 22 24 16
29 28 30 30 30 32 32 30 27 24 22 23 22 20 18 15 13 12 12 15 18 18 20 23 23 21 19 19 16 13 12 14 14 15 25 36 38 44 38 34 28 21 14
24 24 25 26 28 28 27 25 25 21 21 20 17 15 12 10 10 11 14 16 16 19 19 21 22 22 20 19 16 15 15 16 16 21 33 39 44 44 38 30 26 25 19
23 21 22 25 26 26 24 23 22 19 17 15 13 11 11 11 11 12 15 21 21 19 19 20 21 23 22 20 19 18 19 19 22 28 36 38 41 40 36 34 27 25 18
25 26 27 26 25 21 21 20 18 17 15 14 12 10 8 8 14 18 23 20 18 19 20 20 22 22 22 22 23 24 22 23 25 36 40 44 41 41 36 29 29 25 20
26 25 23 22 22 21 20 18 17 15 13 10 9 9 10 14 15 21 21 19 19 21 21 22 23 25 25 25 25 24 26 27 33 36 39 45 46 42 36 33 31 26 22
23 23 23 21 20 19 17 15 13 12 10 9 11 14 13 14 19 22 20 20 21 21 22 23 26 25 26 25 23 23 27 28 31 33 42 46 43 36 36 33 30 26 23
23 23 22 21 19 17 16 15 12 10 12 14 15 12 14 17 21 23 23 22 21 21 22 24 25 24 25 24 24 24 23 25 32 35 34 44 45 39 34 31 30 27 23
25 23 21 19 18 16 12 10 12 16 17 14 12 13 21 25 22 25 26 24 23 21 23 23 23 23 24 25 23 23 27 25 29 36 37 40 41 39 34 32 31 27 24
26 22 20 17 15 13 16 17 21 20 17 14 16 23 24 25 24 24 25 25 26 24 23 24 24 24 25 25 23 23 26 29 32 33 37 41 40 42 29 30 30 29 26

GFSMA_850_spd_222.txt.gz
Wind_Speed
26 25 24 24 23 23 23 22 21 21 20 19 19 19 18 16 16 13 11 10 8 8 9 9 8 8 7 8 8 9 10 10 10 11 10 12 12 11 10 9 9 10 9
27 26 26 25 25 24 22 22 21 21 20 21 21 20 20 19 18 15 13 12 11 13 13 12 11 9 9 9 11 11 12 12 13 13 13 13 14 12 12 11 12 11 10
28 28 27 27 26 25 23 23 23 23 23 23 23 23 22 22 20 19 17 16 16 16 14 13 12 12 12 12 12 13 13 14 14 15 15 13 13 14 14 13 13 15 14
31 30 30 29 27 26 26 26 26 25 25 25 25 24 24 24 24 21 19 16 14 13 14 15 13 13 12 13 13 15 15 16 16 17 17 15 13 14 14 14 14 15 16
34 34 33 31 29 29 29 28 28 27 26 26 27 25 24 25 24 22 19 16 15 14 14 14 14 12 12 13 15 17 17 17 17 19 19 18 18 16 16 15 15 16 17
37 36 36 35 33 32 32 31 29 28 27 24 24 26 27 26 24 24 22 20 19 17 16 14 14 14 14 16 17 18 19 19 19 19 20 22 22 20 18 18 17 17 17
40 39 39 38 37 36 36 33 31 30 29 26 23 25 27 26 27 26 26 24 23 22 21 20 19 18 18 18 19 19 19 20 20 20 24 23 26 25 27 25 20 18 20
41 41 40 40 40 39 39 37 35 34 32 29 28 28 27 28 32 31 30 29 27 27 26 24 21 19 20 20 19 19 21 21 22 23 23 25 24 27 30 39 31 29 25
40 39 39 39 39 40 41 41 39 38 37 33 32 29 12 20 22 25 27 28 31 30 27 24 21 18 16 18 20 20 18 19 22 23 23 27 28 29 29 37 34 34 27
39 37 37 37 38 37 38 39 39 40 39 39 37 36 38 32 18 13 17 19 23 22 20 20 18 17 18 17 18 18 19 21 24 22 22 22 22 24 27 32 40 39 25
36 34 34 35 37 38 37 36 37 38 40 41 41 40 39 42 43 39 32 26 22 21 19 17 18 16 18 18 18 20 21 24 25 24 24 24 25 27 28 25 34 33 26
32 31 32 32 34 38 39 38 38 40 39 41 41 39 43 42 45 44 39 37 29 23 20 21 19 15 15 16 17 20 23 24 25 23 23 23 24 24 21 22 27 30 23
30 28 27 29 32 36 36 37 40 41 41 39 40 43 44 46 45 43 37 34 27 26 22 18 17 20 15 16 18 20 19 19 20 22 24 25 23 21 18 20 26 24 14
27 25 24 25 25 28 29 32 34 37 39 39 40 39 41 40 36 35 38 37 20 15 18 21 17 15 16 16 15 17 21 21 20 20 21 21 20 18 13 21 26 17 22
24 23 24 23 23 24 26 28 30 32 33 36 36 36 37 34 32 35 38 35 19 25 26 19 16 15 12 14 18 23 22 20 20 19 17 16 16 16 14 24 27 22 31
22 22 22 22 22 23 25 26 27 29 30 32 33 34 29 31 32 34 28 27 24 22 13 14 14 10 13 17 22 20 19 19 18 17 16 14 14 14 16 26 27 26 32
21 21 21 22 25 23 25 27 27 29 29 29 29 31 29 26 26 32 27 22 23 18 15 20 16 16 18 19 16 15 16 16 16 17 17 15 14 15 15 26 26 28 33
21 21 22 24 25 23 25 24 24 25 25 28 29 27 25 28 25 23 20 14 16 16 13 15 16 15 16 15 15 14 15 13 13 14 15 16 15 9 20 24 26 35 33
20 22 24 24 22 22 21 24 24 26 27 28 27 26 20 20 19 15 13 12 17 11 11 12 12 14 15 13 14 15 15 14 13 15 17 16 11 11 16 22 27 36 34
17 15 15 16 19 20 22 23 24 24 26 28 22 22 20 14 12 14 13 14 11 9 9 10 12 14 17 16 16 14 13 14 12 16 17 14 13 15 26 26 30 39 34
16 16 16 17 18 19 20 19 21 22 23 23 22 17 15 15 15 15 12 9 8 8 7 10 14 17 18 17 17 16 14 15 15 17 14 14 14 16 23 30 28 35 24
16 16 16 17 18 16 18 19 22 24 22 18 16 15 15 16 14 12 9 8 8 9 11 14 16 18 20 19 19 17 17 17 19 17 17 17 17 20 24 30 26 23 30
14 13 12 14 16 18 22 23 22 22 18 17 18 18 16 14 12 10 10 11 10 14 14 16 20 19 20 20 21 22 19 21 19 17 19 19 18 17 20 26 28 30 29
13 14 14 15 18 20 21 21 19 19 20 20 18 16 13 12 12 11 11 14 15 14 16 21 21 21 22 23 23 22 20 20 21 19 19 21 19 20 22 29 26 32 28
17 16 18 22 24 23 22 18 17 17 16 16 15 13 10 10 10 13 15 15 15 17 20 22 24 24 24 24 23 23 22 22 22 20 20 22 20 22 23 25 28 28 25
18 20 20 21 22 23 22 20 18 19 17 14 12 11 10 12 15 16 15 21 24 21 21 21 23 24 26 25 25 25 25 26 23 21 23 22 23 23 22 24 27 28 30